When you browse on this site, cookies collect data to enhance your experience and personalize the content and advertising you see.
Visit our Privacy Policy to learn more. By continuing to use the site, you agree to this use of cookies and data.
  • In France
  • List of Countries
  • For 7 days
  • Water Temperature
  • Weather Map
  • Weather Widgets
  • user-avatar
    Login

    Hourly Weather Yeghegnadzor

    Today, 1 June, Monday

    Time Temperature Precipitation Wind Pressure Humidity
    00:00 +16°C° 0 mm 2 mps 651 mmHg 49%
    01:00 +16°C° 0 mm 1 mps 651 mmHg 49%
    02:00 +15°C° 0 mm 1 mps 651 mmHg 49%
    03:00 +15°C° 0 mm 1 mps 651 mmHg 49%
    04:00 +16°C° 0 mm 1 mps 652 mmHg 50%
    05:00 +18°C° 0 mm 1 mps 652 mmHg 52%
    06:00 +19°C° 0 mm 1 mps 653 mmHg 54%
    07:00 +21°C° 0 mm 1 mps 653 mmHg 48%
    08:00 +23°C° 0 mm 2 mps 653 mmHg 43%
    09:00 +24°C° 0 mm 2 mps 654 mmHg 37%
    10:00 +25°C° 0 mm 3 mps 654 mmHg 33%
    11:00 +26°C° 0 mm 3 mps 654 mmHg 29%
    12:00 +27°C° 0 mm 4 mps 654 mmHg 25%
    13:00 +27°C° 0 mm 4 mps 654 mmHg 24%
    14:00 +28°C° 0 mm 4 mps 653 mmHg 24%
    15:00 +28°C° 0 mm 5 mps 653 mmHg 24%
    16:00 +27°C° 0 mm 4 mps 653 mmHg 28%
    17:00 +27°C° 0 mm 3 mps 652 mmHg 32%
    18:00 +26°C° 0 mm 3 mps 652 mmHg 35%
    19:00 +24°C° 0 mm 2 mps 652 mmHg 37%
    20:00 +20°C° 0 mm 2 mps 651 mmHg 38%
    21:00 +19°C° 0 mm 1 mps 651 mmHg 40%
    22:00 +18°C° 0 mm 2 mps 651 mmHg 40%
    23:00 +18°C° 0 mm 2 mps 651 mmHg 39%

    Tomorrow, 2 June, Tuesday

    Time Temperature Precipitation Wind Pressure Humidity
    00:00 +17°C° 0 mm 2 mps 651 mmHg 39%
    01:00 +17°C° 0 mm 2 mps 650 mmHg 40%
    02:00 +17°C° 0 mm 2 mps 650 mmHg 41%
    03:00 +16°C° 0 mm 2 mps 650 mmHg 42%
    04:00 +17°C° 0 mm 2 mps 650 mmHg 44%
    05:00 +18°C° 0 mm 2 mps 651 mmHg 45%
    06:00 +19°C° 0 mm 2 mps 651 mmHg 47%
    07:00 +21°C° 0 mm 2 mps 651 mmHg 41%
    08:00 +25°C° 0 mm 3 mps 651 mmHg 35%
    09:00 +27°C° 0 mm 3 mps 652 mmHg 30%
    10:00 +28°C° 0 mm 4 mps 652 mmHg 28%
    11:00 +29°C° 0 mm 6 mps 652 mmHg 27%
    12:00 +30°C° 0 mm 7 mps 652 mmHg 26%
    13:00 +29°C° 0 mm 7 mps 651 mmHg 28%
    14:00 +28°C° 0 mm 7 mps 651 mmHg 31%
    15:00 +28°C° 0 mm 7 mps 650 mmHg 33%
    16:00 +27°C° 0.1 mm 5 mps 650 mmHg 37%
    17:00 +26°C° 0.1 mm 4 mps 650 mmHg 41%
    18:00 +26°C° 0.1 mm 2 mps 650 mmHg 44%
    19:00 +24°C° 0.1 mm 2 mps 649 mmHg 47%
    20:00 +20°C° 0.1 mm 2 mps 649 mmHg 50%
    21:00 +18°C° 0.1 mm 2 mps 648 mmHg 54%
    22:00 +18°C° 0.1 mm 2 mps 648 mmHg 56%
    23:00 +17°C° 0.1 mm 2 mps 648 mmHg 58%

    Day after tomorrow, 3 June, Wednesday

    Time Temperature Precipitation Wind Pressure Humidity
    00:00 +18°C° 0.1 mm 1 mps 648 mmHg 61%
    01:00 +16°C° 0 mm 1 mps 648 mmHg 62%
    02:00 +16°C° 0 mm 1 mps 648 mmHg 63%
    03:00 +16°C° 0 mm 1 mps 648 mmHg 64%
    04:00 +18°C° 0 mm 1 mps 649 mmHg 62%
    05:00 +18°C° 0 mm 2 mps 649 mmHg 60%
    06:00 +19°C° 0 mm 2 mps 650 mmHg 58%
    07:00 +20°C° 0 mm 2 mps 650 mmHg 51%
    08:00 +22°C° 0 mm 3 mps 650 mmHg 44%
    09:00 +25°C° 0 mm 3 mps 651 mmHg 37%
    10:00 +25°C° 0 mm 3 mps 651 mmHg 34%
    11:00 +26°C° 0 mm 4 mps 651 mmHg 32%
    12:00 +27°C° 0 mm 4 mps 651 mmHg 30%
    13:00 +27°C° 0.1 mm 4 mps 651 mmHg 32%
    14:00 +27°C° 0.1 mm 4 mps 650 mmHg 35%
    15:00 +26°C° 0.1 mm 4 mps 650 mmHg 37%
    16:00 +25°C° 0.1 mm 4 mps 650 mmHg 42%
    17:00 +23°C° 0.1 mm 4 mps 650 mmHg 48%
    18:00 +22°C° 0.1 mm 4 mps 649 mmHg 53%
    19:00 +21°C° 0.1 mm 3 mps 650 mmHg 53%
    20:00 +20°C° 0.1 mm 3 mps 650 mmHg 54%
    21:00 +18°C° 0.1 mm 2 mps 650 mmHg 55%
    22:00 +18°C° 0 mm 2 mps 650 mmHg 56%
    23:00 +17°C° 0 mm 2 mps 650 mmHg 57%

    4 June, Thursday

    Time Temperature Precipitation Wind Pressure Humidity
    00:00 +16°C° 0 mm 2 mps 650 mmHg 58%
    01:00 +16°C° 0 mm 2 mps 650 mmHg 58%
    02:00 +15°C° 0 mm 2 mps 650 mmHg 58%
    03:00 +15°C° 0 mm 2 mps 650 mmHg 58%
    04:00 +16°C° 0 mm 1 mps 651 mmHg 57%
    05:00 +18°C° 0 mm 1 mps 651 mmHg 55%
    06:00 +19°C° 0 mm 1 mps 652 mmHg 54%
    07:00 +21°C° 0 mm 1 mps 652 mmHg 48%
    08:00 +23°C° 0 mm 2 mps 653 mmHg 42%
    09:00 +24°C° 0 mm 2 mps 653 mmHg 35%
    10:00 +25°C° 0 mm 3 mps 653 mmHg 32%
    11:00 +26°C° 0 mm 4 mps 653 mmHg 29%
    12:00 +28°C° 0 mm 5 mps 654 mmHg 26%
    13:00 +28°C° 0 mm 4 mps 653 mmHg 26%
    14:00 +28°C° 0 mm 4 mps 653 mmHg 26%
    15:00 +28°C° 0 mm 4 mps 653 mmHg 25%
    16:00 +28°C° 0 mm 3 mps 653 mmHg 28%
    17:00 +28°C° 0 mm 3 mps 653 mmHg 31%
    18:00 +27°C° 0 mm 2 mps 653 mmHg 34%
    19:00 +25°C° 0 mm 2 mps 653 mmHg 37%
    20:00 +21°C° 0 mm 2 mps 653 mmHg 40%
    21:00 +19°C° 0 mm 1 mps 652 mmHg 43%
    22:00 +19°C° 0 mm 1 mps 653 mmHg 43%
    23:00 +18°C° 0 mm 1 mps 653 mmHg 44%

    5 June, Friday

    Time Temperature Precipitation Wind Pressure Humidity
    00:00 +18°C° 0 mm 1 mps 653 mmHg 45%
    01:00 +16°C° 0 mm 1 mps 653 mmHg 46%
    02:00 +16°C° 0 mm 1 mps 653 mmHg 47%
    03:00 +15°C° 0 mm 1 mps 652 mmHg 48%
    04:00 +18°C° 0 mm 1 mps 653 mmHg 48%
    05:00 +19°C° 0 mm 1 mps 654 mmHg 49%
    06:00 +20°C° 0 mm 1 mps 654 mmHg 50%
    07:00 +22°C° 0 mm 1 mps 655 mmHg 44%
    08:00 +23°C° 0 mm 1 mps 655 mmHg 38%
    09:00 +25°C° 0 mm 2 mps 655 mmHg 32%
    10:00 +26°C° 0 mm 3 mps 655 mmHg 30%
    11:00 +27°C° 0 mm 4 mps 655 mmHg 28%
    12:00 +28°C° 0 mm 4 mps 656 mmHg 26%
    13:00 +28°C° 0 mm 4 mps 655 mmHg 25%
    14:00 +28°C° 0 mm 4 mps 655 mmHg 25%
    15:00 +28°C° 0 mm 4 mps 655 mmHg 24%
    16:00 +28°C° 0 mm 3 mps 655 mmHg 28%
    17:00 +27°C° 0 mm 2 mps 655 mmHg 31%
    18:00 +27°C° 0 mm 2 mps 655 mmHg 34%
    19:00 +24°C° 0 mm 2 mps 654 mmHg 36%
    20:00 +21°C° 0 mm 2 mps 654 mmHg 38%
    21:00 +19°C° 0 mm 2 mps 654 mmHg 40%
    22:00 +18°C° 0 mm 2 mps 654 mmHg 45%
    23:00 +17°C° 0 mm 2 mps 654 mmHg 51%

    6 June, Saturday

    Time Temperature Precipitation Wind Pressure Humidity
    00:00 +16°C° 0 mm 2 mps 654 mmHg 56%
    01:00 +16°C° 0 mm 2 mps 654 mmHg 58%
    02:00 +16°C° 0 mm 2 mps 654 mmHg 59%
    03:00 +15°C° 0 mm 2 mps 653 mmHg 61%
    04:00 +16°C° 0 mm 2 mps 654 mmHg 60%
    05:00 +18°C° 0 mm 1 mps 654 mmHg 60%
    06:00 +20°C° 0 mm 1 mps 655 mmHg 60%
    07:00 +21°C° 0.1 mm 1 mps 655 mmHg 54%
    08:00 +23°C° 0.1 mm 1 mps 656 mmHg 48%
    09:00 +25°C° 0.1 mm 1 mps 656 mmHg 43%
    10:00 +25°C° 0.2 mm 1 mps 656 mmHg 40%
    11:00 +26°C° 0.2 mm 2 mps 656 mmHg 38%
    12:00 +27°C° 0.2 mm 2 mps 656 mmHg 36%
    13:00 +27°C° 0.3 mm 3 mps 656 mmHg 35%
    14:00 +27°C° 0.3 mm 3 mps 655 mmHg 35%
    15:00 +27°C° 0.3 mm 3 mps 655 mmHg 35%
    16:00 +26°C° 0.1 mm 3 mps 655 mmHg 40%
    17:00 +25°C° 0.1 mm 2 mps 655 mmHg 45%
    18:00 +24°C° 0.1 mm 2 mps 655 mmHg 49%
    19:00 +21°C° 0.2 mm 2 mps 654 mmHg 55%
    20:00 +19°C° 0.2 mm 2 mps 654 mmHg 61%
    21:00 +17°C° 0.2 mm 2 mps 654 mmHg 67%
    22:00 +16°C° 0 mm 2 mps 654 mmHg 67%
    23:00 +16°C° 0 mm 2 mps 654 mmHg 66%
    Show more